KI2K Weather Reports


time (UTC)temp
F
wind
direction
speed
knots
gust
knots
rain 1hr
in
rain 24hr
in
rain mn
in
humidity
%
barometer
mb
20260503223636 60 279 0.9 1.7 0.00 0.00 0.00 57 1010.4
20260503223132 60 284 1.7 1.7 0.00 0.00 0.00 57 1010.2
20260503222629 60 272 0.9 1.7 0.00 0.00 0.00 56 1010.5
20260503222127 60 277 5.2 6.1 0.00 0.00 0.00 56 1010.7
20260503221625 60 323 4.3 6.1 0.00 0.00 0.00 56 1010.7
20260503221122 60 221 3.5 5.2 0.00 0.00 0.00 55 1010.9
20260503220619 60 217 1.7 5.2 0.00 0.00 0.00 56 1010.5
20260503220116 61 21 3.5 5.2 0.00 0.00 0.00 55 1010.8
20260503215613 61 294 5.2 7.8 0.00 0.00 0.00 55 1010.9
20260503215109 62 242 5.2 7.0 0.00 0.00 0.00 54 1010.9
20260503214608 62 226 3.5 5.2 0.00 0.00 0.00 53 1010.9
20260503214104 61 170 2.6 5.2 0.00 0.00 0.00 54 1011.0
20260503213603 61 345 4.3 6.1 0.00 0.00 0.00 54 1011.2
20260503213059 61 201 4.3 6.1 0.00 0.00 0.00 54 1011.2
20260503212556 61 235 3.5 5.2 0.00 0.00 0.00 54 1011.0
20260503212054 61 219 2.6 4.3 0.00 0.00 0.00 54 1011.0
20260503211551 62 323 2.6 4.3 0.00 0.00 0.00 54 1011.2
20260503211046 62 279 3.5 4.3 0.00 0.00 0.00 53 1011.5
20260503210543 63 159 2.6 4.3 0.00 0.00 0.00 53 1011.4
20260503210039 61 250 3.5 6.1 0.00 0.00 0.00 53 1011.8
20260503205536 61 265 3.5 5.2 0.00 0.00 0.00 53 1011.6
20260503205032 62 188 2.6 4.3 0.00 0.00 0.00 54 1012.0
20260503204529 62 233 4.3 6.1 0.00 0.00 0.00 53 1011.9
20260503204026 62 220 1.7 4.3 0.00 0.00 0.00 53 1012.2
20260503203523 62 319 4.3 6.1 0.00 0.00 0.00 53 1012.1
20260503203020 62 309 2.6 5.2 0.00 0.00 0.00 53 1012.2
20260503202518 62 226 0.9 0.9 0.00 0.00 0.00 53 1012.5
20260503202016 63 302 6.1 7.8 0.00 0.00 0.00 52 1012.7
20260503201514 62 239 4.3 7.0 0.00 0.00 0.00 52 1012.9
20260503201011 61 281 4.3 7.0 0.00 0.00 0.00 53 1013.0
20260503200507 61 278 4.3 5.2 0.00 0.00 0.00 52 1013.3
20260503200004 62 339 3.5 6.1 0.00 0.00 0.00 53 1013.4
20260503195501 62 280 1.7 1.7 0.00 0.00 0.00 52 1013.4
20260503194957 63 193 2.6 4.3 0.00 0.00 0.00 52 1013.5
20260503194455 63 282 0.9 0.9 0.00 0.00 0.00 51 1013.6
20260503193949 62 280 1.7 1.7 0.00 0.00 0.00 53 1013.8
20260503193446 62 256 0.9 1.7 0.00 0.00 0.00 52 1014.1
20260503192941 62 273 0.9 0.9 0.00 0.00 0.00 53 1014.0
20260503192438 60 270 3.5 6.1 0.00 0.00 0.00 53 1014.6
20260503191933 60 295 2.6 2.6 0.00 0.00 0.00 54 1014.7
20260503191431 61 301 2.6 2.6 0.00 0.00 0.00 54 1014.5
20260503190927 61 243 2.6 7.0 0.00 0.00 0.00 54 1014.3
20260503190425 61 240 2.6 6.1 0.00 0.00 0.00 53 1014.0
20260503185922 61 307 2.6 2.6 0.00 0.00 0.00 52 1013.8
20260503185418 62 269 1.7 2.6 0.00 0.00 0.00 50 1013.9
20260503184917 62 359 4.3 6.1 0.00 0.00 0.00 51 1014.1
20260503184414 61 211 1.7 1.7 0.00 0.00 0.00 53 1014.3
20260503183911 61 233 3.5 5.2 0.00 0.00 0.00 53 1014.5
20260503183407 62 280 2.6 2.6 0.00 0.00 0.00 52 1014.3
20260503182904 62 248 1.7 2.6 0.00 0.00 0.00 52 1014.3
20260503182403 60 272 0.9 0.9 0.00 0.00 0.00 53 1014.7
20260503181900 60 291 1.7 1.7 0.00 0.00 0.00 53 1014.8
20260503181357 60 298 2.6 4.3 0.00 0.00 0.00 53 1015.2
20260503180853 62 254 3.5 5.2 0.00 0.00 0.00 52 1015.2
20260503180351 61 167 3.5 5.2 0.00 0.00 0.00 53 1015.2
20260503175848 61 284 0.0 0.9 0.00 0.00 0.00 52 1015.3
20260503175346 60 241 1.7 2.6 0.00 0.00 0.00 53 1015.4
20260503174841 61 271 1.7 1.7 0.00 0.00 0.00 52 1015.6
20260503174339 61 298 6.1 7.8 0.00 0.00 0.00 51 1015.7
20260503173834 61 319 2.6 4.3 0.00 0.00 0.00 52 1015.7
20260503173331 62 319 3.5 5.2 0.00 0.00 0.00 50 1016.1
20260503172828 62 294 1.7 4.3 0.00 0.00 0.00 52 1016.0
20260503172326 61 175 2.6 2.6 0.00 0.00 0.00 53 1016.1
20260503171821 60 270 0.9 0.9 0.00 0.00 0.00 51 1016.2
20260503171318 61 223 2.6 4.3 0.00 0.00 0.00 51 1016.4
20260503170815 61 261 1.7 1.7 0.00 0.00 0.00 52 1016.3
20260503170312 60 271 2.6 4.3 0.00 0.00 0.00 51 1016.3
20260503150704 57 284 1.7 2.6 0.00 0.00 0.00 53 1017.8
20260503150201 57 275 3.5 5.2 0.00 0.00 0.00 51 1017.9
20260503140125 53 242 1.7 1.7 0.00 0.00 0.00 57 1018.4
20260503131054 50 270 0.9 1.7 0.00 0.00 0.00 63 1018.1
20260503130551 50 287 0.9 0.9 0.00 0.00 0.00 63 1018.1
20260503110442 39 271 0.9 0.9 0.00 0.00 0.00 78 1017.7
20260503090333 38 259 0.0 0.9 0.00 0.00 0.00 83 1017.3
20260503081300 37 274 0.0 0.9 0.00 0.00 0.00 85 1017.4
20260503080756 37 274 0.0 0.0 0.00 0.00 0.00 85 1017.3
20260503080254 38 277 0.0 0.0 0.00 0.00 0.00 84 1017.3
20260503072730 38 265 0.0 0.0 0.00 0.00 0.00 85 1017.3
20260503072227 38 281 0.0 0.0 0.00 0.00 0.00 86 1017.3
20260503071723 37 276 0.0 0.0 0.00 0.00 0.00 87 1017.2
20260503071221 37 276 0.0 0.0 0.00 0.00 0.00 87 1017.4
20260503070717 37 278 0.0 0.0 0.00 0.00 0.00 88 1017.3
20260503070215 37 277 0.0 0.0 0.00 0.00 0.00 88 1017.3
20260503060140 37 276 0.0 0.0 0.00 0.00 0.00 93 1017.8
20260503054627 37 276 0.0 0.0 0.00 0.00 0.00 93 1017.8
20260503054124 37 278 0.0 0.0 0.00 0.00 0.00 93 1017.7
20260503053622 37 278 0.0 0.0 0.00 0.00 0.00 93 1017.8
20260503053120 37 278 0.0 0.0 0.00 0.00 0.00 93 1017.7
20260503052616 37 278 0.0 0.0 0.00 0.00 0.00 93 1017.8
20260503052113 37 278 0.0 0.0 0.00 0.00 0.00 93 1018.0
20260503051608 37 278 0.0 0.0 0.00 0.00 0.00 94 1017.8
20260503051106 37 281 0.0 0.0 0.00 0.00 0.00 94 1018.1
20260503050602 37 281 0.0 0.0 0.00 0.00 0.00 94 1017.8
20260503050059 37 279 0.0 0.0 0.00 0.00 0.00 94 1018.2
20260503045556 37 278 0.0 0.0 0.00 0.00 0.00 94 1018.0
20260503045053 37 281 0.0 0.0 0.00 0.00 0.00 94 1018.1
20260503044550 37 281 0.0 0.0 0.00 0.00 0.00 94 1018.0
20260503044048 37 281 0.0 0.0 0.00 0.00 0.00 94 1017.9
20260503043544 37 278 0.0 0.0 0.00 0.00 0.00 93 1017.9
20260503043040 37 277 0.0 0.0 0.00 0.00 0.00 93 1017.9
20260503042537 37 280 0.0 0.0 0.00 0.00 0.00 93 1018.0
20260503042033 37 280 0.0 0.0 0.00 0.00 0.00 92 1017.8
20260503041530 37 280 0.0 0.0 0.00 0.00 0.00 92 1018.0
20260503041028 37 277 0.0 0.0 0.00 0.00 0.00 92 1017.9
20260503040525 38 282 0.0 0.0 0.00 0.00 0.00 92 1018.0
20260503040023 38 282 0.0 0.0 0.00 0.00 0.00 91 1017.7
20260503035520 38 282 0.0 0.0 0.00 0.00 0.00 91 1017.9
20260503035017 38 280 0.0 0.0 0.00 0.00 0.00 91 1018.0
20260503034514 38 279 0.0 0.0 0.00 0.00 0.00 90 1018.2
20260503034011 38 285 0.0 0.0 0.00 0.00 0.00 90 1018.2
20260503033508 38 285 0.0 0.0 0.00 0.00 0.00 90 1018.1
20260503033006 38 285 0.0 0.0 0.00 0.00 0.00 89 1018.1
20260503032504 38 285 0.0 0.0 0.00 0.00 0.00 89 1017.9
20260503032002 38 285 0.0 0.0 0.00 0.00 0.00 88 1018.1
20260503031500 38 285 0.0 0.0 0.00 0.00 0.00 88 1018.0
20260503030956 39 285 0.0 0.0 0.00 0.00 0.00 87 1018.0
20260503030452 39 285 0.0 0.0 0.00 0.00 0.00 87 1018.0
20260503025949 39 285 0.0 0.0 0.00 0.00 0.00 87 1018.0
20260503025446 39 285 0.0 0.0 0.00 0.00 0.00 86 1018.1
20260503024944 39 285 0.0 0.0 0.00 0.00 0.00 85 1018.0
20260503024440 40 285 0.0 0.0 0.00 0.00 0.00 84 1017.7
20260503023937 40 285 0.0 0.0 0.00 0.00 0.00 83 1018.0
20260503023434 40 285 0.0 0.0 0.00 0.00 0.00 83 1018.0
20260503022931 40 285 0.0 0.0 0.00 0.00 0.00 82 1017.9
20260503022426 41 285 0.0 0.0 0.00 0.00 0.00 81 1017.9
20260503021922 41 285 0.0 0.0 0.00 0.00 0.00 80 1017.9
20260503021418 41 285 0.0 0.0 0.00 0.00 0.00 79 1017.9
20260503020916 41 285 0.0 0.0 0.00 0.00 0.00 77 1017.5
20260503020414 41 285 0.0 0.0 0.00 0.00 0.00 77 1017.7
20260503015910 42 285 0.0 0.0 0.00 0.00 0.00 76 1017.9
20260503015407 42 285 0.0 0.0 0.00 0.00 0.00 74 1017.6
20260503014903 42 285 0.0 0.0 0.00 0.00 0.00 74 1017.6
20260503014400 42 286 0.0 0.0 0.00 0.00 0.00 72 1017.5
20260503013858 42 285 0.0 0.0 0.00 0.00 0.00 70 1017.6
20260503013355 43 285 0.0 0.0 0.00 0.00 0.00 69 1017.5
20260503012852 43 285 0.0 0.0 0.00 0.00 0.00 67 1017.6
20260503012349 43 286 0.0 0.0 0.00 0.00 0.00 67 1017.4
20260503011846 43 286 0.0 0.0 0.00 0.00 0.00 65 1017.5
20260503011342 44 286 0.0 0.0 0.00 0.00 0.00 66 1017.5
20260503010839 44 286 0.0 0.0 0.00 0.00 0.00 65 1017.2
20260503010331 45 286 0.0 0.0 0.00 0.00 0.00 67 1017.5
20260503005827 45 286 0.0 0.0 0.00 0.00 0.00 64 1017.5
20260503005325 46 286 0.0 0.0 0.00 0.00 0.00 63 1017.3
20260503004821 46 286 0.0 0.0 0.00 0.00 0.00 61 1017.1
20260503004319 46 286 0.0 0.0 0.00 0.00 0.00 59 1017.4
20260503003816 47 286 0.0 0.0 0.00 0.00 0.00 59 1017.4
20260503003313 47 286 0.0 0.0 0.00 0.00 0.00 58 1017.4
20260503002810 48 286 0.0 0.0 0.00 0.00 0.00 58 1017.1
20260503002307 48 286 0.0 0.0 0.00 0.00 0.00 56 1017.2
20260503001803 48 286 0.0 0.0 0.00 0.00 0.00 56 1017.4
20260503001300 49 286 0.0 0.9 0.00 0.00 0.00 57 1017.5
20260503000757 49 286 0.0 0.0 0.00 0.00 0.00 55 1017.2
20260503000254 49 286 0.0 0.0 0.00 0.00 0.00 53 1017.1
20260502235751 49 286 0.0 0.0 0.00 0.00 0.00 53 1017.2
20260502235249 50 286 0.0 0.0 0.00 0.00 0.00 53 1017.1
20260502234745 50 286 0.0 0.0 0.00 0.00 0.00 52 1017.1
20260502234243 50 281 0.9 0.9 0.00 0.00 0.00 51 1017.2
20260502233738 50 286 0.9 0.9 0.00 0.00 0.00 51 1017.2
20260502233235 50 286 0.0 0.0 0.00 0.00 0.00 51 1017.0
20260502232731 51 277 0.9 0.9 0.00 0.00 0.00 48 1017.1
20260502232228 51 291 0.9 0.9 0.00 0.00 0.00 47 1017.2
20260502231725 51 286 0.9 1.7 0.00 0.00 0.00 48 1017.2
20260502231223 51 294 0.9 0.9 0.00 0.00 0.00 46 1017.0
20260502230722 52 281 0.9 0.9 0.00 0.00 0.00 46 1017.2
20260502230219 53 297 0.9 0.9 0.00 0.00 0.00 46 1017.0
20260502225715 54 319 2.6 2.6 0.00 0.00 0.00 43 1017.0
20260502225213 53 285 3.5 4.3 0.00 0.00 0.00 44 1017.2
20260502224708 55 300 0.9 0.9 0.00 0.00 0.00 45 1017.2
20260502224205 55 282 1.7 1.7 0.00 0.00 0.00 45 1017.1